Weather History for RPLB - August, 2013

Change the Weather History Date:

Thursday, August 29, 2013

  Actual Average Record
Temperature  
Mean Temperature 82 °F -  
Max Temperature 89 °F 84 °F 91 °F (1999)
Min Temperature 75 °F 74 °F 73 °F (2008)
Cooling Degree Days 17    
Growing Degree Days 32 (Base 50)    
Moisture  
Dew Point 78 °F    
Average Humidity 83    
Maximum Humidity 100    
Minimum Humidity 60    
Precipitation  
Precipitation 0.12 in - - ()
Sea Level Pressure  
Sea Level Pressure 29.83 in    
Wind  
Wind Speed 4 mph ()    
Max Wind Speed 9 mph    
Max Gust Speed -    
Visibility 7.1 miles    
Events Rain    
Averages and records for this station are not official NWS values.
T = Trace of Precipitation, MM = Missing Value Source: Averaged Metar Reports

Daily Weather History Graph

Daily Weather History Graph

Search for Another Location

Airport or City:

Trip Planner

Search our weather history database for the weather conditions in past years. The results will help you decide how hot, cold, wet, or windy it might be!

Date:

Astronomy

Aug. 29, 2013 Rise Set
Actual Time 5:46 AM PHT 6:13 PM PHT
Civil Twilight 5:24 AM PHT 6:34 PM PHT
Nautical Twilight 4:59 AM PHT 7:00 PM PHT
Astronomical Twilight 4:33 AM PHT 7:25 PM PHT
Moon No Moon Rise 12:45 PM PHT (8/29)
Length of Visible Light 13h 10m
Length of Day
12h 26m
Last Quarter, 43% of the Moon is Illuminated
Aug 29
Last Quarter
Sep 5
New
Sep 13
First Quarter
Sep 19
Full
Sep 27
Last Quarter

Hourly Weather History & Observations

Time (PHT) Temp. Heat Index Dew Point Humidity Pressure Visibility Wind Dir Wind Speed Gust Speed Precip Events Conditions
2:00 AM 81 °F - 77 °F 85% 29.82 in 12 mi SSE 4.5 mph - -   Haze
2:00 AM 80.6 °F 87.1 °F 77.0 °F 89% 29.80 in 6.2 mi SSE 2.3 mph - N/A   Scattered Clouds
5:00 AM 80 °F - 77 °F 89% 29.83 in 12 mi South 2.2 mph - -   Haze
5:00 AM 80.6 °F 87.1 °F 77.0 °F 89% 29.83 in 6.2 mi South 2.3 mph - N/A   Scattered Clouds
6:00 AM 78.8 °F - 77.0 °F 94% 29.83 in 5.0 mi Variable 2.3 mph - N/A   Overcast
7:00 AM 80.6 °F 86.2 °F 75.2 °F 84% 29.83 in 3.1 mi Calm Calm - N/A   Haze
8:00 AM 83 °F - 78 °F 80% 29.86 in 5 mi SSW 4.5 mph - -   Haze
8:00 AM 84.2 °F 94.1 °F 77.0 °F 79% 29.86 in 5.0 mi SSW 4.6 mph - N/A   Mostly Cloudy
9:00 AM 84.2 °F 96.1 °F 78.8 °F 84% 29.86 in 6.2 mi SSW 6.9 mph - N/A   Mostly Cloudy
10:00 AM 86.0 °F 99.3 °F 78.8 °F 79% 29.86 in 6.2 mi SW 9.2 mph - N/A   Mostly Cloudy
11:00 AM 87 °F - 78 °F 67% 29.84 in 12 mi SW 8.9 mph - -   Haze
11:00 AM 87.8 °F 99.7 °F 77.0 °F 70% 29.83 in 6.2 mi SW 9.2 mph - N/A   Mostly Cloudy
12:00 PM 87.8 °F 102.5 °F 78.8 °F 75% 29.83 in 6.2 mi SSW 6.9 mph - N/A   Scattered Clouds
1:00 PM 89.6 °F 108.2 °F 80.6 °F 75% 29.80 in 6.2 mi SW 6.9 mph - N/A   Scattered Clouds
2:00 PM 90 °F - 78 °F 60% 29.80 in 12 mi SW 6.7 mph - -   Haze
2:00 PM 89.6 °F 102.2 °F 77.0 °F 66% 29.80 in 6.2 mi SW 6.9 mph - N/A   Scattered Clouds
3:00 PM 84.2 °F 98.3 °F 80.6 °F 89% 29.80 in 5.0 mi WSW 9.2 mph - N/A Rain Light Rain Showers
4:00 PM 86.0 °F 101.9 °F 80.6 °F 84% 29.80 in 5.6 mi SW 9.2 mph - N/A Rain Rain Showers
5:00 PM 87 °F - 80 °F 73% 29.80 in 12 mi SW 8.9 mph - -   Haze
5:00 PM 86.0 °F 99.3 °F 78.8 °F 79% 29.71 in 5.6 mi SW 9.2 mph - N/A   Mostly Cloudy
6:00 PM 84.2 °F 96.1 °F 78.8 °F 84% 29.80 in 5.6 mi SW 6.9 mph - N/A   Mostly Cloudy
7:00 PM 82.4 °F 92.4 °F 78.8 °F 89% 29.83 in 5.0 mi SW 5.8 mph - N/A Rain Light Rain Showers
8:00 PM 82 °F - 79 °F 87% 29.85 in 11 mi SSE 2.2 mph - -   Haze
8:00 PM 82.4 °F 92.4 °F 78.8 °F 89% 29.83 in 5.6 mi SSE 2.3 mph - N/A   Mostly Cloudy
9:00 PM 80.6 °F 88.1 °F 78.8 °F 94% 29.86 in 5.0 mi Calm Calm - N/A Rain Light Rain Showers
10:00 PM 80.6 °F 88.1 °F 78.8 °F 94% 29.86 in 5.6 mi Calm Calm - N/A   Mostly Cloudy
11:00 PM 80 °F - 78 °F 92% 29.87 in 11 mi Calm Calm - -   Haze
11:00 PM 78.8 °F - 78.8 °F 100% 29.86 in 5.0 mi Calm Calm - N/A   Mostly Cloudy